Weather History for Barrow, AK

Change the Weather History Date:

Thursday, March 7, 2013

  Actual Average Record
Temperature  
Mean Temperature -8 °F -14 °F  
Max Temperature -4 °F -8 °F 23 °F (1949)
Min Temperature -12 °F -21 °F -44 °F (1959)
Degree Days  
Heating Degree Days 73 79  
Month to date heating degree days 538 553  
Since 1 July heating degree days 12511 13401  
Cooling Degree Days 0    
Month to date cooling degree days 0  
Year to date cooling degree days 0  
Moisture  
Dew Point -15 °F    
Average Humidity 0    
Maximum Humidity 0    
Minimum Humidity 0    
Precipitation  
Precipitation 0.00 in 0.00 in 0.10 in (1921)
Month to date precipitation T 0.02  
Year to date precipitation 0.13 0.29  
Snow  
Snow 0.00 in 0.10 in 1.10 in (2006)
Month to date snowfall 0.2 0.5  
Since 1 July snowfall 44.2 29.5  
Snow Depth 6.00 in    
Sea Level Pressure  
Sea Level Pressure 29.96 in    
Wind  
Wind Speed 26 mph (ENE)    
Max Wind Speed 35 mph    
Max Gust Speed 39 mph    
Visibility 6 miles    
Events Snow    
T = Trace of Precipitation, MM = Missing Value Source: NWS Daily Summary

Daily Weather History Graph

Daily Weather History Graph

Search for Another Location

Airport:

Trip Planner

Search our weather history database for the weather conditions in past years. The results will help you decide how hot, cold, wet, or windy it might be!

Date:

Astronomy

Mar. 07, 2013 Rise Set
Actual Time 8:27 AM AKST 6:50 PM AKST
Civil Twilight 7:22 AM AKST 7:55 PM AKST
Nautical Twilight 6:06 AM AKST 9:12 PM AKST
Astronomical Twilight 4:38 AM AKST 10:41 PM AKST
Moon 8:17 AM AKST (3/7) 12:16 PM AKST (3/7)
Length of Visible Light 12h 33m
Length of Day
10h 23m
Waning Crescent, 19% of the Moon is Illuminated
Mar 7
Waning Crescent
Mar 11
New
Mar 19
First Quarter
Mar 27
Full
Apr 2
Last Quarter

Hourly Weather History & Observations

Time (AKST) Temp. Windchill Dew Point Humidity Pressure Visibility Wind Dir Wind Speed Gust Speed Precip Events Conditions
12:14 AM -7.6 °F -33.4 °F -13.0 °F 77% 30.00 in 1.2 mi East 23.0 mph - N/A Snow Blowing Snow
12:21 AM -7.6 °F -32.9 °F -13.0 °F 77% 30.00 in 4.0 mi East 21.9 mph 31.1 mph N/A Snow Blowing Snow
12:53 AM -7.1 °F -31.6 °F -11.9 °F 79% 30.01 in 6.0 mi East 20.7 mph - N/A Snow Blowing Snow
1:53 AM -8.0 °F -33.3 °F -13.0 °F 79% 30.02 in 6.0 mi East 21.9 mph - N/A Snow Blowing Snow
2:53 AM -9.0 °F -35.3 °F -14.1 °F 79% 30.03 in 6.0 mi East 23.0 mph - N/A Snow Blowing Snow
3:53 AM -9.0 °F -36.3 °F -14.1 °F 79% 30.03 in 6.0 mi East 25.3 mph - N/A Snow Blowing Snow
4:53 AM -9.0 °F -35.8 °F -15.0 °F 75% 30.03 in 7.0 mi East 24.2 mph - N/A   Scattered Clouds
5:53 AM -9.9 °F -38.0 °F -15.0 °F 78% 30.02 in 8.0 mi East 26.5 mph - N/A   Overcast
6:25 AM -9.4 °F -35.8 °F -16.6 °F 71% 30.01 in 10.0 mi East 23.0 mph - N/A   Overcast
6:53 AM -11.0 °F -37.9 °F -16.1 °F 78% 30.02 in 8.0 mi East 23.0 mph - N/A   Mostly Cloudy
7:30 AM -11.2 °F -36.4 °F -16.6 °F 77% 30.01 in 10.0 mi East 19.6 mph - N/A   Scattered Clouds
7:53 AM -11.9 °F -37.4 °F -17.0 °F 78% 30.02 in 10.0 mi East 19.6 mph - N/A   Mostly Cloudy
8:53 AM -11.9 °F -38.0 °F -17.0 °F 78% 30.01 in 5.0 mi ENE 20.7 mph - N/A Snow Blowing Snow
9:53 AM -11.9 °F -39.6 °F -18.0 °F 74% 30.01 in 4.0 mi ENE 24.2 mph - N/A Snow Blowing Snow
10:20 AM -11.2 °F -39.2 °F -16.6 °F 77% 29.99 in 2.0 mi ENE 25.3 mph - N/A Snow Blowing Snow
10:53 AM -11.0 °F -38.4 °F -17.0 °F 75% 30.01 in 5.0 mi ENE 24.2 mph - N/A Snow Blowing Snow
11:53 AM -11.0 °F -37.9 °F -16.1 °F 78% 30.01 in 10.0 mi ENE 23.0 mph - N/A   Mostly Cloudy
12:53 PM -9.9 °F -36.5 °F -16.1 °F 74% 29.99 in 10.0 mi ENE 23.0 mph - N/A   Mostly Cloudy
1:37 PM -9.4 °F -36.3 °F -14.8 °F 77% 29.98 in 4.0 mi ENE 24.2 mph - N/A Snow Blowing Snow
1:53 PM -9.0 °F -36.3 °F -15.0 °F 75% 29.99 in 4.0 mi ENE 25.3 mph - N/A Snow Blowing Snow
2:53 PM -9.0 °F -36.3 °F -14.1 °F 79% 29.96 in 3.0 mi ENE 25.3 mph - N/A Snow Blowing Snow
3:53 PM -9.0 °F -36.8 °F -15.0 °F 75% 29.93 in 3.0 mi ENE 26.5 mph - N/A Snow Blowing Snow
4:04 PM -9.4 °F -37.7 °F -14.8 °F 77% 29.92 in 3.0 mi ENE 27.6 mph - N/A Snow Blowing Snow
4:53 PM -9.0 °F -36.3 °F -14.1 °F 79% 29.93 in 3.0 mi ENE 25.3 mph - N/A Snow Blowing Snow
5:53 PM -8.0 °F -36.6 °F -14.1 °F 75% 29.91 in 10.0 mi ENE 29.9 mph 34.5 mph N/A   Mostly Cloudy
6:53 PM -7.1 °F -36.2 °F -13.0 °F 75% 29.87 in 3.0 mi ENE 32.2 mph - N/A Snow Blowing Snow
7:53 PM -7.1 °F -36.6 °F -13.0 °F 75% 29.88 in 5.0 mi East 33.4 mph 38.0 mph N/A Snow Blowing Snow
8:53 PM -7.1 °F -35.4 °F -13.0 °F 75% 29.85 in 10.0 mi ENE 29.9 mph - N/A   Overcast
9:03 PM -7.6 °F -35.7 °F -13.0 °F 77% 29.84 in 10.0 mi ENE 28.8 mph - N/A   Overcast
9:53 PM -7.1 °F -35.8 °F -13.0 °F 75% 29.82 in 10.0 mi ENE 31.1 mph 39.1 mph N/A   Overcast
10:53 PM -5.1 °F -32.7 °F -11.9 °F 72% 29.84 in 10.0 mi ENE 29.9 mph 38.0 mph N/A   Overcast
11:53 PM -4.0 °F -32.4 °F -11.0 °F 72% 29.82 in 10.0 mi East 33.4 mph 38.0 mph N/A   Overcast